EW7614 Weather Reports


Display with metric or nautical units.
time (UTC)temp
F
wind
direction
speed
MPH
gust
MPH
rain 1hr
in
rain 24hr
in
rain mn
in
humidity
%
barometer
mb
20260508081611 53 282 0.0 4.0 0.00 0.02 0.00 77 1014.5
20260508080033 52 277 0.0 3.0 0.00 0.02 0.00 75 1014.6
20260508074614 53 326 0.0 2.0 0.00 0.02 0.00 76 1014.7
20260508073025 52 314 0.0 2.0 0.00 0.02 0.00 78 1014.9
20260508071618 51 74 0.0 1.0 0.00 0.02 0.00 82 1014.9
20260508070030 50 111 0.0 1.0 0.00 0.02 0.00 84 1014.8
20260508064629 49 322 0.0 1.0 0.00 0.02 0.00 86 1015.0
20260508063042 48 73 0.0 1.0 0.00 0.02 0.00 88 1015.1
20260508061635 48 78 0.0 1.0 0.00 0.02 0.00 89 1014.9
20260508060051 47 77 0.0 2.0 0.00 0.02 0.00 91 1014.8
20260508054502 46 71 0.0 2.0 0.00 0.02 0.00 92 1014.6
20260508053054 46 53 0.0 1.0 0.00 0.02 0.00 92 1014.7
20260508051518 46 67 0.0 0.0 0.00 0.02 0.00 92 1014.8
20260508050110 46 67 0.0 0.0 0.00 0.02 0.00 92 1014.6
20260508044516 45 67 0.0 1.0 0.00 0.02 0.00 92 1014.6
20260508043116 45 65 0.0 1.0 0.00 0.02 0.00 93 1014.5
20260508041538 45 65 0.0 1.0 0.00 0.02 0.00 94 1014.5
20260508040127 45 234 0.0 0.0 0.00 0.02 0.00 95 1014.3
20260508034546 45 234 0.0 0.0 0.00 0.02 0.00 95 1014.2
20260508033135 45 234 0.0 0.0 0.00 0.02 0.00 95 1014.2
20260508031556 45 234 0.0 0.0 0.00 0.02 0.00 95 1014.2
20260508030021 45 234 0.0 0.0 0.00 0.02 0.00 95 1014.2
20260508024608 45 234 0.0 0.0 0.00 0.02 0.00 95 1014.2
20260508023029 45 234 0.0 0.0 0.00 0.02 0.00 95 1014.2
20260508021624 44 234 0.0 0.0 0.00 0.02 0.00 95 1014.4
20260508020040 44 234 0.0 0.0 0.00 0.02 0.00 95 1014.4
20260508014626 44 234 0.0 0.0 0.00 0.02 0.00 95 1014.4
20260508013051 44 234 0.0 0.0 0.00 0.02 0.00 95 1014.6
20260508011516 45 234 0.0 0.0 0.00 0.02 0.00 95 1014.7
20260508010107 45 234 0.0 0.0 0.00 0.02 0.00 95 1014.6
20260508004535 45 234 0.0 0.0 0.00 0.02 0.00 94 1014.6
20260508003126 45 234 0.0 0.0 0.00 0.02 0.00 94 1014.6
20260508001541 45 233 0.0 0.0 0.00 0.02 0.00 95 1014.6
20260508000001 45 239 0.0 0.0 0.00 0.02 0.00 95 1014.8
20260507234552 45 239 0.0 0.0 0.00 0.02 0.00 95 1015.0
20260507233022 44 239 0.0 0.0 0.00 0.02 0.00 95 1015.1
20260507231601 44 238 0.0 0.0 0.00 0.02 0.00 95 1015.1
20260507230026 44 236 0.0 0.0 0.00 0.02 0.00 96 1015.1
20260507224616 44 236 0.0 1.0 0.00 0.02 0.00 95 1015.0
20260507223048 44 343 0.0 0.0 0.00 0.02 0.00 95 1014.9
20260507221507 45 10 0.0 0.0 0.00 0.02 0.00 95 1014.9
20260507220053 45 11 0.0 0.0 0.00 0.02 0.00 95 1014.8
20260507214525 45 280 0.0 0.0 0.00 0.02 0.02 95 1014.8
20260507213115 45 280 0.0 0.0 0.00 0.02 0.02 95 1014.7
20260507211526 45 280 0.0 1.0 0.00 0.02 0.02 94 1014.7
20260507210124 46 280 0.0 0.0 0.00 0.02 0.02 94 1014.6
20260507204539 46 280 0.0 0.0 0.00 0.02 0.02 93 1014.6
20260507203133 46 280 0.0 0.0 0.00 0.02 0.02 94 1014.5
20260507201546 46 280 0.0 0.0 0.01 0.02 0.02 92 1014.5
20260507200129 47 280 0.0 1.0 0.01 0.02 0.02 92 1014.3
20260507194615 48 303 0.0 2.0 0.01 0.02 0.02 89 1014.2
20260507193132 49 227 2.0 5.0 0.01 0.02 0.02 88 1013.9
20260507191601 48 185 4.0 6.0 0.00 0.01 0.01 89 1013.7
20260507190016 48 294 0.0 0.0 0.00 0.01 0.01 90 1013.6
20260507184607 48 294 0.0 0.0 0.00 0.01 0.01 89 1013.3
20260507183026 49 294 0.0 0.0 0.00 0.01 0.01 89 1013.2
20260507181608 49 294 0.0 0.0 0.00 0.01 0.01 88 1013.0
20260507180032 49 309 0.0 3.0 0.00 0.01 0.01 87 1012.8
20260507174608 50 281 0.0 1.0 0.00 0.01 0.01 86 1012.7
20260507173034 50 42 0.0 1.0 0.00 0.01 0.01 85 1012.6
20260507171610 50 38 0.0 0.0 0.00 0.01 0.01 86 1012.5
20260507170020 51 96 0.0 4.0 0.00 0.01 0.01 83 1012.5
20260507164608 51 74 0.0 2.0 0.00 0.01 0.01 84 1012.3
20260507163017 51 75 0.0 1.0 0.00 0.01 0.01 86 1012.3
20260507161558 51 345 0.0 5.0 0.01 0.01 0.01 85 1012.1
20260507160133 51 103 0.0 3.0 0.01 0.01 0.01 86 1012.0
20260507154542 51 57 0.0 4.0 0.01 0.01 0.01 85 1011.9
20260507153130 51 155 0.0 3.0 0.01 0.01 0.01 84 1011.9
20260507151540 51 238 0.0 5.0 0.00 0.00 0.00 83 1011.7
20260507150116 51 195 0.0 2.0 0.00 0.00 0.00 80 1011.4
20260507144653 52 188 0.0 2.0 0.00 0.00 0.00 81 1011.2
20260507143105 53 152 0.0 1.0 0.00 0.00 0.00 78 1011.2
20260507141629 54 97 0.0 4.0 0.00 0.00 0.00 75 1011.1
20260507140038 54 78 2.0 8.0 0.00 0.00 0.00 75 1010.7
20260507134544 54 71 1.0 8.0 0.00 0.00 0.00 73 1010.5
20260507133110 55 60 1.0 10.0 0.00 0.00 0.00 76 1010.6
20260507131615 54 294 1.0 8.0 0.00 0.00 0.00 75 1010.8
20260507130038 55 57 2.0 11.0 0.00 0.00 0.00 75 1010.4
20260507124618 55 65 2.0 8.0 0.00 0.00 0.00 79 1010.5
20260507123013 53 192 3.0 7.0 0.00 0.00 0.00 78 1010.4
20260507121544 53 258 2.0 7.0 0.00 0.00 0.00 76 1010.4
20260507120131 54 198 2.0 6.0 0.00 0.00 0.00 71 1010.1
20260507114611 55 195 3.0 9.0 0.00 0.00 0.00 70 1010.0
20260507113015 56 140 0.0 4.0 0.00 0.00 0.00 73 1010.0
20260507111551 54 298 0.0 5.0 0.00 0.00 0.00 76 1009.9
20260507110121 53 177 0.0 9.0 0.00 0.00 0.00 81 1009.9
20260507104528 51 159 0.0 3.0 0.00 0.00 0.00 84 1010.0
20260507103002 52 292 4.0 18.0 0.00 0.00 0.00 78 1010.1
20260507101541 54 279 5.0 15.0 0.00 0.00 0.00 69 1009.6
20260507100115 56 318 8.0 15.0 0.00 0.00 0.00 64 1009.2
20260507094550 59 342 4.0 12.0 0.00 0.00 0.00 61 1008.9
20260507093053 61 11 1.0 6.0 0.00 0.00 0.00 57 1008.7
20260507091549 60 339 1.0 5.0 0.00 0.00 0.00 63 1008.7
20260507090046 58 221 0.0 1.0 0.00 0.00 0.00 59 1008.6
20260507084550 60 213 0.0 2.0 0.00 0.00 0.00 58 1008.5
20260507083044 60 82 0.0 2.0 0.00 0.00 0.00 58 1008.7